Weather Roundup
Issued by NWS

Home | Current Version | Previous Version | Graphics & Text | Print | Product List | Glossary Off
Versions: 1 2 3 4 5 6 7 8 9 10 11 12 13 14 15 16 17 18 19 20 21 22 23 24 25 26 27 28 29 30 31 32 33 34 35 36 37 38 39 40 41 42 43 44 45 46 47 48 49 50

000
NZUS93 KARX 200859
HRRWXR

CURRENT HOURLY OBSERVATIONS ACROSS
MUCH OF THE UPPER MISSISSIPPI VALLEY
NATIONAL WEATHER SERVICE LA CROSSE WI
400 AM CDT WED AUG 20 2014


...SOUTHEAST MINNESOTA...


CITY           SKY/WX    TMP DP  RH WIND       PRES   REMARKS
ROCHESTER      PTCLDY    63  60  90 CALM      29.85R FOG
ROCHESTER/MAYO FAIR      66  63  89 CALM      29.83S
WINONA         CLEAR     63  61  94 CALM      29.82S FOG
AUSTIN         PTCLDY    61  61 100 CALM      29.83R FOG
ALBERT LEA     CLEAR     64  63  94 CALM      29.83S
DODGE CENTER   PTCLDY    61  61 100 SW5       29.83S FOG
PRESTON        PTCLDY    64  64 100 CALM      29.84S
OWATONNA       CLEAR     61  59  94 CALM      29.82S FOG
FARIBAULT      MOCLDY    63  57  82 CALM      29.82S HAZE
$$

...ELSEWHERE IN MINNESOTA...


CITY           SKY/WX    TMP DP  RH WIND       PRES   REMARKS
MINNEAPOLIS    PTCLDY    67  65  93 CALM      29.81S
INTNL FALLS    FOG       52  52 100 CALM      29.83S VSB 1/2
DULUTH         FOG       59  57  93 SE5       29.85R VSB 3/4
RED WING       FOG       63  61  94 CALM      29.81S VSB 3/4
REDWOOD FALLS  PTCLDY    64  63  96 CALM      29.80R
MANKATO        CLEAR     64  61  88 CALM      29.81S
WORTHINGTON    CLEAR     61   5  11 NE3       29.83F
FAIRMONT       PTCLDY    63  45  51 CALM      29.82R
$$

...SOUTHWEST WISCONSIN...


CITY           SKY/WX    TMP DP  RH WIND       PRES   REMARKS
LA CROSSE      PTCLDY    66  63  90 S5        29.81R
PRAIRIE DU CHI CLEAR     64  62  93 CALM      29.81S
BOSCOBEL       PTCLDY    65  62  90 CALM      29.82R FOG
LONE ROCK      MOCLDY    64  61  88 CALM      29.82R
PLATTEVILLE    CLEAR     64  62  93 S3        29.85R
FORT MC COY    MOCLDY    58  57  97 CALM      29.83R
VIROQUA        CLOUDY    63  63 100 CALM      29.84R
WIS DELLS      PTCLDY    62  60  93 CALM      29.82R
$$

...ELSEWHERE IN WISCONSIN...


CITY           SKY/WX    TMP DP  RH WIND       PRES   REMARKS
MILWAUKEE      CLEAR     67  62  84 W5        29.79R
MADISON        PTCLDY    63  60  90 CALM      29.82R
GREEN BAY      MOCLDY    60  60 100 W5        29.79R
EAU CLAIRE     FOG       60  60 100 CALM      29.82R VSB 1
BLACK RVR FLS  FOG       58  58 100 CALM      29.81S VSB 1/4
MEDFORD        MOCLDY    58  58  99 CALM      29.83R
WAUSAU         MOCLDY    61  59  93 CALM      29.81R
WIS RAPIDS     FOG       61  60  97 CALM      29.83R VSB 1/4
MARSHFIELD     FOG       61  60  97 NW5       29.82R VSB 1/2
RICE LAKE      CLOUDY    61  59  95 CALM      29.86R
$$

...NORTHEAST IOWA...


CITY           SKY/WX    TMP DP  RH WIND       PRES   REMARKS
WATERLOO       CLEAR     63  61  93 NE5       29.81F
DUBUQUE        CLEAR     62  60  93 SW5       29.84S
DECORAH        CLOUDY    64  63  94 CALM      29.82S
MASON CITY     CLEAR     64  62  93 CALM      29.84S
CHARLES CITY   CLEAR     63  61  94 CALM      29.84S
OELWEIN        CLEAR     64  63  94 W6        29.84S
$$

...ELSEWHERE IN IOWA...


CITY           SKY/WX    TMP DP  RH WIND       PRES   REMARKS
DES MOINES     MOCLDY    74  65  73 SE6       29.80F
IOWA CITY      CLEAR     63  62  97 CALM      29.83F
FORT DODGE     CLEAR     63  61  94 CALM      29.83S
MARSHALLTOWN   CLEAR     62  60  93 S5        29.82F
CEDAR RAPIDS   CLEAR     61  61 100 S3        29.81F
$$

...NORTHERN ILLINOIS...


CITY           SKY/WX    TMP DP  RH WIND       PRES   REMARKS
CHICAGO-OHARE  CLEAR     68  60  75 W5        29.81R
DUPAGE         CLEAR     65  62  90 W6        29.82R
CHICAGO-MIDWAY CLEAR     70  65  84 W5        29.81R
MOLINE         CLEAR     64  62  93 CALM      29.82F
ROCKFORD       PTCLDY    64  60  87 CALM      29.84R
STERLING       CLEAR     64  61  88 W3        29.83F
PEORIA         CLEAR     67  63  87 CALM      29.84S
$$

NOTE: "FAIR" INDICATES FEW OR NO CLOUDS BELOW 12,000 FEET WITH NO
SIGNIFICANT WEATHER AND/OR OBSTRUCTIONS TO VISIBILITY. WIND
SPEEDS ARE IN MILES-PER-HOUR.



USA.gov is the U.S. government's official web portal to all federal, state and local government web resources and services.